EN

Hourly Weather Szerencs

Today, 24 October, Saturday

Time Temperature Precipitation Wind Pressure Humidity
00:00 +11°C° 0 mm 0 mps 750 mmHg 90%
01:00 +11°C° 0 mm 0 mps 750 mmHg 90%
02:00 +11°C° 0 mm 0 mps 750 mmHg 90%
03:00 +11°C° 0 mm 0 mps 750 mmHg 89%
04:00 +11°C° 0 mm 0 mps 750 mmHg 89%
05:00 +11°C° 0 mm 0 mps 750 mmHg 90%
06:00 +12°C° 0 mm 1 mps 750 mmHg 91%
07:00 +12°C° 0 mm 1 mps 750 mmHg 91%
08:00 +13°C° 0 mm 1 mps 750 mmHg 87%
09:00 +13°C° 0 mm 0 mps 750 mmHg 84%
10:00 +14°C° 0 mm 0 mps 751 mmHg 80%
11:00 +15°C° 0 mm 0 mps 751 mmHg 78%
12:00 +15°C° 0 mm 0 mps 751 mmHg 77%
13:00 +18°C° 0 mm 1 mps 751 mmHg 75%
14:00 +16°C° 0 mm 1 mps 751 mmHg 78%
15:00 +16°C° 0 mm 1 mps 751 mmHg 81%
16:00 +15°C° 0 mm 1 mps 751 mmHg 83%
17:00 +15°C° 0 mm 1 mps 751 mmHg 85%
18:00 +15°C° 0 mm 2 mps 751 mmHg 86%
19:00 +14°C° 0 mm 2 mps 751 mmHg 87%
20:00 +14°C° 0 mm 2 mps 751 mmHg 87%
21:00 +14°C° 0 mm 2 mps 751 mmHg 86%
22:00 +14°C° 0 mm 2 mps 751 mmHg 86%
23:00 +14°C° 0 mm 2 mps 751 mmHg 86%

Tomorrow, 25 October, Sunday

Time Temperature Precipitation Wind Pressure Humidity
00:00 +14°C° 0 mm 2 mps 751 mmHg 86%
01:00 +13°C° 0 mm 2 mps 751 mmHg 86%
02:00 +13°C° 0 mm 2 mps 751 mmHg 86%
03:00 +13°C° 0 mm 2 mps 750 mmHg 86%
04:00 +13°C° 0 mm 2 mps 750 mmHg 87%
05:00 +13°C° 0.5 mm 2 mps 750 mmHg 88%
06:00 +13°C° 0.5 mm 2 mps 750 mmHg 90%
07:00 +13°C° 0.5 mm 2 mps 750 mmHg 92%
08:00 +13°C° 0.6 mm 2 mps 750 mmHg 92%
09:00 +13°C° 0.6 mm 2 mps 749 mmHg 92%
10:00 +13°C° 0.6 mm 2 mps 749 mmHg 93%
11:00 +13°C° 0.6 mm 2 mps 749 mmHg 93%
12:00 +13°C° 0.6 mm 2 mps 749 mmHg 93%
13:00 +13°C° 0.6 mm 2 mps 749 mmHg 94%
14:00 +13°C° 0.3 mm 1 mps 749 mmHg 94%
15:00 +13°C° 0.3 mm 1 mps 748 mmHg 95%
16:00 +13°C° 0.3 mm 1 mps 748 mmHg 96%
17:00 +13°C° 0.1 mm 1 mps 748 mmHg 96%
18:00 +13°C° 0.1 mm 1 mps 749 mmHg 96%
19:00 +13°C° 0.1 mm 1 mps 749 mmHg 96%
20:00 +13°C° 0 mm 1 mps 749 mmHg 97%
21:00 +13°C° 0 mm 1 mps 749 mmHg 97%
22:00 +12°C° 0 mm 0 mps 749 mmHg 97%
23:00 +13°C° 0.2 mm 1 mps 749 mmHg 97%

Day after tomorrow, 26 October, Monday

Time Temperature Precipitation Wind Pressure Humidity
00:00 +13°C° 0.2 mm 1 mps 749 mmHg 97%
01:00 +13°C° 0.2 mm 1 mps 749 mmHg 97%
02:00 +13°C° 0 mm 1 mps 749 mmHg 97%
03:00 +13°C° 0 mm 1 mps 749 mmHg 97%
04:00 +13°C° 0 mm 2 mps 748 mmHg 97%
05:00 +13°C° 0 mm 2 mps 748 mmHg 96%
06:00 +13°C° 0 mm 2 mps 748 mmHg 95%
07:00 +13°C° 0 mm 2 mps 748 mmHg 94%
08:00 +13°C° 0 mm 3 mps 748 mmHg 93%
09:00 +13°C° 0 mm 3 mps 748 mmHg 91%
10:00 +14°C° 0 mm 3 mps 748 mmHg 89%
11:00 +14°C° 0 mm 3 mps 748 mmHg 85%
12:00 +15°C° 0 mm 4 mps 748 mmHg 81%
13:00 +17°C° 0 mm 4 mps 748 mmHg 76%
14:00 +17°C° 0 mm 3 mps 748 mmHg 78%
15:00 +16°C° 0 mm 3 mps 748 mmHg 81%
16:00 +16°C° 0 mm 2 mps 747 mmHg 83%
17:00 +16°C° 0.1 mm 3 mps 748 mmHg 84%
18:00 +14°C° 0.1 mm 3 mps 748 mmHg 86%
19:00 +14°C° 0.1 mm 3 mps 748 mmHg 87%
20:00 +14°C° 0 mm 3 mps 748 mmHg 88%
21:00 +13°C° 0 mm 3 mps 748 mmHg 88%
22:00 +14°C° 0 mm 2 mps 748 mmHg 89%
23:00 +14°C° 0 mm 2 mps 748 mmHg 89%

, 27 October, Tuesday

Time Temperature Precipitation Wind Pressure Humidity
00:00 +13°C° 0 mm 2 mps 748 mmHg 90%
01:00 +13°C° 0 mm 2 mps 748 mmHg 90%
02:00 +13°C° 0 mm 2 mps 748 mmHg 91%
03:00 +12°C° 0 mm 1 mps 749 mmHg 91%
04:00 +12°C° 0 mm 1 mps 749 mmHg 92%
05:00 +12°C° 0 mm 1 mps 749 mmHg 92%
06:00 +12°C° 0 mm 1 mps 749 mmHg 92%
07:00 +12°C° 0 mm 1 mps 749 mmHg 92%
08:00 +13°C° 0 mm 1 mps 749 mmHg 86%
09:00 +15°C° 0 mm 1 mps 749 mmHg 79%
10:00 +16°C° 0 mm 1 mps 749 mmHg 73%
11:00 +18°C° 0 mm 1 mps 748 mmHg 70%
12:00 +19°C° 0 mm 1 mps 748 mmHg 66%
13:00 +20°C° 0 mm 1 mps 748 mmHg 62%
14:00 +19°C° 0 mm 1 mps 748 mmHg 66%
15:00 +18°C° 0 mm 1 mps 748 mmHg 70%
16:00 +16°C° 0 mm 1 mps 748 mmHg 73%
17:00 +16°C° 0 mm 1 mps 748 mmHg 76%
18:00 +15°C° 0 mm 1 mps 748 mmHg 78%
19:00 +14°C° 0 mm 1 mps 748 mmHg 80%
20:00 +14°C° 0 mm 1 mps 749 mmHg 81%
21:00 +14°C° 0 mm 1 mps 749 mmHg 82%
22:00 +14°C° 0 mm 1 mps 749 mmHg 84%
23:00 +13°C° 0 mm 1 mps 749 mmHg 84%

27 October, Tuesday

Time Temperature Precipitation Wind Pressure Humidity
00:00 +13°C° 0 mm 2 mps 748 mmHg 90%
01:00 +13°C° 0 mm 2 mps 748 mmHg 90%
02:00 +13°C° 0 mm 2 mps 748 mmHg 91%
03:00 +12°C° 0 mm 1 mps 749 mmHg 91%
04:00 +12°C° 0 mm 1 mps 749 mmHg 92%
05:00 +12°C° 0 mm 1 mps 749 mmHg 92%
06:00 +12°C° 0 mm 1 mps 749 mmHg 92%
07:00 +12°C° 0 mm 1 mps 749 mmHg 92%
08:00 +13°C° 0 mm 1 mps 749 mmHg 86%
09:00 +15°C° 0 mm 1 mps 749 mmHg 79%
10:00 +16°C° 0 mm 1 mps 749 mmHg 73%
11:00 +18°C° 0 mm 1 mps 748 mmHg 70%
12:00 +19°C° 0 mm 1 mps 748 mmHg 66%
13:00 +20°C° 0 mm 1 mps 748 mmHg 62%
14:00 +19°C° 0 mm 1 mps 748 mmHg 66%
15:00 +18°C° 0 mm 1 mps 748 mmHg 70%
16:00 +16°C° 0 mm 1 mps 748 mmHg 73%
17:00 +16°C° 0 mm 1 mps 748 mmHg 76%
18:00 +15°C° 0 mm 1 mps 748 mmHg 78%
19:00 +14°C° 0 mm 1 mps 748 mmHg 80%
20:00 +14°C° 0 mm 1 mps 749 mmHg 81%
21:00 +14°C° 0 mm 1 mps 749 mmHg 82%
22:00 +14°C° 0 mm 1 mps 749 mmHg 84%
23:00 +13°C° 0 mm 1 mps 749 mmHg 84%

28 October, Wednesday

Time Temperature Precipitation Wind Pressure Humidity
00:00 +13°C° 0 mm 1 mps 749 mmHg 85%
01:00 +13°C° 0 mm 1 mps 749 mmHg 86%
02:00 +13°C° 0 mm 1 mps 749 mmHg 86%
03:00 +12°C° 0 mm 1 mps 749 mmHg 87%
04:00 +12°C° 0 mm 1 mps 749 mmHg 87%
05:00 +12°C° 0 mm 1 mps 749 mmHg 87%
06:00 +12°C° 0 mm 1 mps 750 mmHg 88%
07:00 +12°C° 0 mm 1 mps 750 mmHg 88%
08:00 +13°C° 0 mm 1 mps 750 mmHg 82%
09:00 +15°C° 0 mm 1 mps 750 mmHg 77%
10:00 +16°C° 0 mm 1 mps 750 mmHg 72%
11:00 +18°C° 0 mm 1 mps 750 mmHg 69%
12:00 +18°C° 0 mm 1 mps 750 mmHg 66%
13:00 +19°C° 0 mm 1 mps 750 mmHg 63%
14:00 +18°C° 0 mm 1 mps 750 mmHg 68%
15:00 +15°C° 0 mm 0 mps 750 mmHg 72%
16:00 +15°C° 0 mm 0 mps 750 mmHg 76%
17:00 +14°C° 0 mm 0 mps 750 mmHg 78%
18:00 +13°C° 0 mm 0 mps 750 mmHg 81%
19:00 +13°C° 0 mm 0 mps 751 mmHg 83%
20:00 +13°C° 0 mm 0 mps 751 mmHg 84%
21:00 +12°C° 0 mm 0 mps 751 mmHg 85%
22:00 +12°C° 0 mm 0 mps 751 mmHg 86%
23:00 +12°C° 0 mm 0 mps 751 mmHg 87%

29 October, Thursday

Time Temperature Precipitation Wind Pressure Humidity
00:00 +12°C° 0 mm 0 mps 751 mmHg 88%
01:00 +11°C° 0 mm 0 mps 751 mmHg 88%
02:00 +11°C° 0 mm 0 mps 751 mmHg 89%
03:00 +11°C° 0 mm 0 mps 751 mmHg 89%
04:00 +11°C° 0 mm 0 mps 751 mmHg 90%
05:00 +11°C° 0 mm 0 mps 752 mmHg 90%
06:00 +11°C° 0 mm 0 mps 752 mmHg 91%
07:00 +11°C° 0 mm 0 mps 752 mmHg 91%
08:00 +12°C° 0 mm 0 mps 752 mmHg 86%
09:00 +13°C° 0 mm 0 mps 753 mmHg 81%
10:00 +14°C° 0 mm 0 mps 753 mmHg 77%
11:00 +15°C° 0 mm 0 mps 753 mmHg 74%
12:00 +18°C° 0 mm 1 mps 753 mmHg 71%
13:00 +18°C° 0 mm 1 mps 753 mmHg 68%
14:00 +18°C° 0 mm 1 mps 753 mmHg 72%
15:00 +16°C° 0 mm 1 mps 753 mmHg 75%
16:00 +15°C° 0 mm 1 mps 753 mmHg 79%
17:00 +15°C° 0 mm 1 mps 754 mmHg 81%
18:00 +14°C° 0 mm 1 mps 754 mmHg 83%
19:00 +13°C° 0 mm 1 mps 754 mmHg 86%
20:00 +13°C° 0 mm 1 mps 755 mmHg 86%
21:00 +12°C° 0 mm 0 mps 755 mmHg 86%
22:00 +11°C° 0 mm 0 mps 756 mmHg 87%
23:00 +11°C° 0 mm 0 mps 756 mmHg 87%
Show more

We Need Your Consent

Meteoprog and our Service Providers may store and access personal data such as cookies, device identifiers or other similar technologies on your device and process such data to personalise content and ads, as well as provide social media features and to analyse the traffic.

  • Store and/or access information on your device

    Cookies, device identifiers or other information can be stored or accessed on your device for the purposes indicated above.

  • Personalised ads and content, ad and content measurement, audience insights, and products development

    Ads and content can be personalised based on a profile. More data can be added to better personalise ads and content. Ad and content performance can be measured. Insights about the audience who saw the ads and content can be derived. Such data can be used to develop or improve user’s experience, systems and software.

By clicking ‘I Agree’ you will allow the use of indicated cookies, device identifiers, web beacons or other similar technologies. Your settings can be changed in the browser on your device.

For certain purposes, legitimate interests may be relied on, rather than consent. You can read more about this in our Privacy and Cookie Policy.